Location: Aubespeyre
(44.6859°N, 2.4655°E)
Time: 08:29:59
(UTC+00:00)

Cosmos 1844 Rocket - Visible Passes

Search period start: 09 June 2026 00:00
Search period end: 19 June 2026 00:00
Orbit: 825 x 842 km, 71.0° (Epoch: 8 June)

Date Brightness Start Highest point End Pass type
(mag) Time Alt. Az. Time Alt. Az. Time Alt. Az.
9 Jun 2.9 21:18:27 10° SSW 21:23:59 72° WNW 21:29:35 10° NNE visible
9 Jun 5.4 23:05:55 10° WNW 23:08:54 14° NW 23:11:54 10° N visible
10 Jun 2.8 21:00:48 10° SSW 21:06:22 78° WNW 21:11:58 10° NNE visible
10 Jun 5.4 22:47:55 10° W 22:51:11 16° NW 22:54:28 10° N visible
11 Jun 2.7 20:43:10 10° SSW 20:48:44 86° WNW 20:54:21 10° NNE visible
11 Jun 5.4 22:29:56 10° W 22:33:28 17° NW 22:37:01 10° N visible
12 Jun 2.7 20:25:33 10° SSW 20:31:07 87° ESE 20:36:43 10° NNE visible
12 Jun 5.4 22:12:00 10° W 22:15:45 18° NW 22:19:32 10° N visible
13 Jun 2.7 20:07:57 10° SSW 20:13:30 80° ESE 20:19:06 10° NNE visible
13 Jun 5.4 21:54:05 10° W 21:58:03 20° NW 22:02:02 10° N visible
14 Jun 6.3 03:17:46 10° NNE 03:19:21 11° NE 03:20:56 10° NE visible
14 Jun 5.3 21:36:11 10° W 21:40:21 21° NW 21:44:31 10° N visible
15 Jun 6.3 03:00:49 10° NNE 03:01:36 10° NE 03:02:24 10° NE visible
15 Jun 5.3 21:18:19 10° W 21:22:39 23° NW 21:27:00 10° N visible
16 Jun 5.2 21:00:27 10° WSW 21:04:58 25° NW 21:09:29 10° N visible
17 Jun 5.1 20:42:37 10° WSW 20:47:16 26° NW 20:51:56 10° N visible
18 Jun 5.0 20:24:49 10° WSW 20:29:35 29° NW 20:34:24 10° N visible
